Regional Weather Roundup
Issued by NWS

Home | Current Version | Previous Version | Graphics & Text | Print | Product List | Glossary On
Versions: 1 2 3 4 5 6 7 8 9 10 11 12 13 14 15 16 17 18 19 20 21 22 23 24 25 26 27 28 29 30 31 32 33 34 35 36 37 38 39 40 41 42 43 44 45 46 47 48 49 50
000
ASUS43 KLSX 280859
RWRMO

WEATHER SUMMARY FOR MISSOURI
NATIONAL WEATHER SERVICE SPRINGFIELD MO
300 AM CST SUN DEC 28 2014

NOTE: "FAIR" INDICATES FEW OR NO CLOUDS BELOW 12,000 FEET WITH NO
       SIGNIFICANT WEATHER AND/OR OBSTRUCTIONS TO VISIBILITY.
       CURRENT SKY AND/OR WEATHER CONDITIONS ARE NOT AVAILABLE FOR
       CHILLICOTHE AND FARMINGTON.

MOZ001>031-035>038-043-044-053-054-281000-
...NORTHERN AND WESTERN MISSOURI...

CITY           SKY/WX    TMP DP  RH WIND       PRES   REMARKS
KANSAS CTY INT CLEAR     20  18  92 SW5       30.24S WCI  13
KANSAS C DTWN  CLEAR     23  17  78 SW3       30.26S
LEE`S SUMMIT   CLEAR     22  17  81 W3        30.24S
ST JOSEPH      CLEAR     17  14  88 CALM      30.25F
CHILLICOTHE      N/A     22  18  85 CALM      30.26S
KIRKSVILLE     CLEAR     22  20  92 SW3       30.22S

$$
MOZ066>068-077>081-088>096-101>105-281000-
...SOUTHWEST MISSOURI...

CITY           SKY/WX    TMP DP  RH WIND       PRES   REMARKS
SPRINGFIELD    CLOUDY    26  23  88 NW6       30.23S WCI  19
JOPLIN         MOCLDY    23  20  88 NW3       30.27S

$$
MOZ032>034-039>042-045>050-055>058-069>072-281000-
...CENTRAL MISSOURI...

CITY           SKY/WX    TMP DP  RH WIND       PRES   REMARKS
COLUMBIA       CLOUDY    28  22  78 NW8       30.24R WCI  20
JEFFERSON CITY CLOUDY    29  21  72 NW5       30.27R WCI  24
ROLLA          CLOUDY    28  23  81 W9        30.20S WCI  19
SEDALIA        PTCLDY    24  20  84 CALM      30.26R
WARRENSBURG    CLEAR     21  19  93 CALM      30.26S
OSAGE BEACH    CLOUDY    28  19  69 CALM      30.25R

$$
MOZ051-052-059>065-281000-
...EAST CENTRAL MISSOURI...

CITY           SKY/WX    TMP DP  RH WIND       PRES   REMARKS
ST LOUIS INTL  CLOUDY    33  26  75 NW7       30.22R WCI  27
SPIRIT OF STL  CLOUDY    32  26  78 NW8       30.22S WCI  25
ST CHARLES     CLOUDY    32  25  75 N9        30.23R WCI  24

$$
MOZ072>076-082>087-097>100-106>115-281000-
...SOUTH CENTRAL AND SOUTHEAST MISSOURI...

CITY           SKY/WX    TMP DP  RH WIND       PRES   REMARKS
CAPE GIRARDEAU CLOUDY    37  32  82 N12       30.20R WCI  29
FARMINGTON     CLOUDY    30  28  93 SE7       30.22R WCI  23
POPLAR BLUFF   CLOUDY    37  31  78 N9        30.20R
WEST PLAINS    CLOUDY    31  27  85 NW6       30.21R WCI  25

$$



USA.gov is the U.S. government's official web portal to all federal, state and local government web resources and services.